Regional Weather Roundup
Issued by NWS

Home | Current Version | Previous Version | Text Only | Print | Product List | Glossary On
Versions: 1 2 3 4 5 6 7 8 9 10 11 12 13 14 15 16 17 18 19 20 21 22 23 24 25 26 27 28 29 30 31 32 33 34 35 36 37 38 39 40 41 42 43 44 45 46 47 48 49 50
000
ASUS43 KLMK 270310
RWRKY
KENTUCKY REGIONAL WEATHER ROUNDUP
NATIONAL WEATHER SERVICE LOUISVILLE KY
1100 PM EDT TUE AUG 26 2014

NOTE "FAIR" INDICATES FEW OR NO CLOUDS BELOW 12,000 FEET
WITH NO SIGNIFICANT WEATHER AND/OR OBSTRUCTIONS TO VISIBILITY.

KYZ001>023-026-027-061>063-070>075-270400-
WESTERN AND SOUTH CENTRAL KENTUCKY

CITY           SKY/WX    TMP DP  RH WIND       PRES   REMARKS
PADUCAH        CLEAR     77  73  87 CALM      30.07R
HENDERSON      CLEAR     77  72  83 MISG      30.07R
OWENSBORO      CLEAR     80  75  84 CALM      30.08R
HOPKINSVILLE   PTCLDY    76  76  99 N3        30.09R
BOWLING GREEN  CLEAR     78  72  81 CALM      30.08S
GLASGOW        PTCLDY    74  71  89 CALM      30.10R
$$

KYZ024-025-028>034-038-045-046-053-270400-
NORTH CENTRAL KENTUCKY

CITY           SKY/WX    TMP DP  RH WIND       PRES   REMARKS
LOUISVILLE/SDF PTCLDY    83  67  58 S7        30.07R
LOUISVILLE/LOU CLEAR     80  68  66 S3        30.07S
FORT KNOX      CLEAR     77  75  94 N3        30.09R
$$

KYZ035>037-039>044-047>052-055>060-089>105-270400-
NORTHEAST KENTUCKY

CITY           SKY/WX    TMP DP  RH WIND       PRES   REMARKS
LEXINGTON      PTCLDY    78  66  66 SE5       30.11S
COVINGTON      PTCLDY    77  69  76 SW3       30.10R
FRANKFORT      PTCLDY    77  69  76 SE5       30.09S
$$

KYZ054-064>069-076>088-106>120-270400-
SOUTHEAST KENTUCKY

CITY           SKY/WX    TMP DP  RH WIND       PRES   REMARKS
JACKSON        CLEAR     71  62  73 CALM      30.14F
LONDON         CLEAR     69  63  81 NE3       30.13F
SOMERSET       PTCLDY    70  68  94 CALM      30.13S
MIDDLESBORO    CLEAR     68  65  89 CALM      30.14S
MONTICELLO     PTCLDY    69  67  93 CALM      30.13S
$$



USA.gov is the U.S. government's official web portal to all federal, state and local government web resources and services.